Showing default

KUIPER-00084, 64830

Orbit data source: Space-Track

KUIPER-00084, 64830 is a payload satellite owned by Kuiper Systems (US) in LEO that was launched on Wed, 16 Jul 2025 UTC via an FALCON 9 launch vehicle from the Air Force Eastern Test Range (AFETR). Payload-class satellites include a variety of spacecraft equipped with specific instruments for various scientific and technological missions. These include communications satellites like Starlink; space stations such as the ISS; scientific satellites like the Hubble; Earth observation satellites from companies like Planet Labs, Umbra, and HawkEye 360; GPS; miniature CubeSats for education and research; and military/defense satellites.

Loading next visibility...
Identifier
64830, 2025-151Q
Orbit
LEO
Country
Flag of USUS
Related business
Manufacturer
Kuiper Systems
Mission
Operational Commercial Communications
Bus & Motor
KUIPER, Unknown motor
Mass
~490 kg wet, ~490 kg dry
Launch date (UTC)
2025-07-16 (11 months ago)
Launch vehicle
FALCON 9
Launch site
Air Force Eastern Test Range (AFETR)
Object type
Payload
Rocket body
Debris
Shape & HBR
Box + 2 Pan, 3.4 m
Radar Cross Section
2.326 m², Large (>1 m²)

Expand to show TLE details & history
Last TLE update: 7 hours ago

TLE from 7 hours ago
0 KUIPER-00084
1 64830U 25151Q   26166.87552880 -.00000130  00000-0  11891-4 0  9998
2 64830  51.9012 231.4078 0000492 100.8498 259.2520 14.79929403 49771
Epoch: 2026-06-15T21:00Z
TLE epoch observation values (Epoch: 2026-06-15T21:00:45.688Z)
Latitude
0.00001°
Longitude
12.0618°
Altitude
630.358 km
Speed
7.544 km/s
True Right ascension
15h 25m 37s
True Declination
0° 00' 00"
Sunlit
Object was in full shadow at epoch
Visualization orbit readout
Latitude
Unknown
Longitude
Unknown
Altitude
Unknown
Speed
Unknown
Apparent Right ascension
Unknown
Apparent Declination
Unknown
Sunlit
N/A
Visualization observer readout
Local Sidereal Time
14:44:35
Azimuth
Unknown
Elevation
Unknown
Doppler factor
Unknown
Orbital elements
Apogee altitude
630.343 km
Perigee altitude
629.653 km
Semi-major axis
7,008.135 km
Eccentricity
0.00005
Inclination
51.9012°
RAAN
231.4078°
Arg. of periapsis
100.8498°
True anomaly
259.24646°
Mean anomaly
259.252°
Eccentric anomaly
259.24923°
Mean motion
3.69947 °/min
Orbital period
97.31 mins
BSTAR
0.000011891
Loading maneuver chart data...
Computing Atmospheric mass density...
Loading historical data...
Loading historical data...
Loading historical data...
Loading historical data...
Loading historical data...
Loading historical data...
Loading historical data...

Documentation

Showing up to 5 results
|